Weather History for Kaltag, AK

Change the Weather History Date:

Sunday, October 7, 2012

  Actual Average (PAGA) Record (PAGA)
Temperature  
Mean Temperature 34 °F -  
Max Temperature 39 °F 36 °F 56 °F (1969)
Min Temperature 28 °F 27 °F 10 °F (1986)
Degree Days  
Heating Degree Days 32    
Moisture  
Dew Point 32 °F    
Average Humidity 97    
Maximum Humidity 100    
Minimum Humidity 93    
Precipitation  
Precipitation 0.00 in - - ()
Sea Level Pressure  
Sea Level Pressure 30.27 in    
Wind  
Wind Speed 0 mph (SW)    
Max Wind Speed 5 mph    
Max Gust Speed -    
Visibility 7 miles    
Events Fog , Rain    
Averages and records for this station are not official NWS values.
T = Trace of Precipitation, MM = Missing Value Source: NWS Daily Summary

Daily Weather History Graph

Daily Weather History Graph

Search for Another Location

Airport:

Trip Planner

Search our weather history database for the weather conditions in past years. The results will help you decide how hot, cold, wet, or windy it might be!

Date:

Astronomy

Oct. 07, 2012 Rise Set
Actual Time 9:03 AM AKDT 7:39 PM AKDT
Civil Twilight 8:15 AM AKDT 8:27 PM AKDT
Nautical Twilight 7:19 AM AKDT 9:23 PM AKDT
Astronomical Twilight 6:21 AM AKDT 10:21 PM AKDT
Moon 11:32 PM AKDT (10/7) 5:23 PM AKDT (10/7)
Length of Visible Light 12h 12m
Length of Day
10h 35m
Waning Gibbous, 55% of the Moon is Illuminated
Oct 7
Waning Gibbous
Oct 7
Last Quarter
Oct 15
New
Oct 21
First Quarter
Oct 29
Full

Hourly Weather History & Observations

Time (AKDT) Temp. Windchill Dew Point Humidity Pressure Visibility Wind Dir Wind Speed Gust Speed Precip Events Conditions
12:53 AM 32.0 °F - 32.0 °F 100% 30.23 in 10.0 mi Calm Calm - N/A   Clear
1:53 AM 30.9 °F - 30.0 °F 96% 30.24 in 10.0 mi Calm Calm - 0.00 in   Scattered Clouds
2:04 AM 30.2 °F - 30.2 °F 100% 30.23 in 10.0 mi Calm Calm - N/A   Mostly Cloudy
2:53 AM 32.0 °F - 30.9 °F 96% 30.24 in 10.0 mi Calm Calm - 0.00 in   Scattered Clouds
3:40 AM 28.4 °F - 28.4 °F 100% 30.24 in 10.0 mi Calm Calm - 0.00 in   Scattered Clouds
3:53 AM 28.9 °F - 28.9 °F 100% 30.25 in 10.0 mi Calm Calm - 0.00 in   Partly Cloudy
4:39 AM 30.2 °F - 28.4 °F 93% 30.24 in 10.0 mi Calm Calm - 0.00 in   Mostly Cloudy
4:53 AM 30.0 °F - 28.9 °F 96% 30.26 in 10.0 mi Calm Calm - 0.00 in   Overcast
5:13 AM 32.0 °F 28.7 °F 30.2 °F 93% 30.25 in 5.0 mi SSW 3.5 mph - 0.00 in   Overcast
5:18 AM 33.8 °F - 32.0 °F 93% 30.25 in 1.5 mi Calm Calm - 0.00 in   Overcast
5:29 AM 33.8 °F - 33.8 °F 100% 30.26 in 0.8 mi Calm Calm - 0.00 in Rain Light Rain
5:53 AM 33.1 °F 28.7 °F 33.1 °F 100% 30.26 in 0.2 mi SW 4.6 mph - 0.00 in Fog , Rain Light Rain
6:53 AM 32.0 °F 28.7 °F 30.9 °F 96% 30.26 in 0.5 mi SW 3.5 mph - 0.00 in Fog Fog
7:53 AM 30.0 °F 26.5 °F 30.0 °F 100% 30.27 in 0.8 mi SW 3.5 mph - 0.00 in   Mist
8:15 AM 28.4 °F 24.6 °F 28.4 °F 100% 30.26 in 2.0 mi SW 3.5 mph - 0.00 in   Mostly Cloudy
8:22 AM 30.2 °F - 28.4 °F 93% 30.26 in 9.0 mi Calm Calm - 0.00 in   Scattered Clouds
8:53 AM 28.9 °F - 28.0 °F 96% 30.28 in 10.0 mi Calm Calm - 0.00 in   Clear
9:53 AM 28.9 °F - 28.0 °F 96% 30.30 in 10.0 mi Calm Calm - 0.00 in   Clear
10:53 AM 30.9 °F - 30.0 °F 96% 30.30 in 10.0 mi Calm Calm - 0.00 in   Clear
11:15 AM 30.2 °F - 30.2 °F 100% 30.29 in 10.0 mi Calm Calm - N/A   Scattered Clouds
11:23 AM 30.2 °F - 30.2 °F 100% 30.29 in 10.0 mi Calm Calm - N/A   Mostly Cloudy
11:34 AM 32.0 °F - 30.2 °F 93% 30.29 in 10.0 mi Calm Calm - N/A   Overcast
11:51 AM 32.0 °F - 30.2 °F 93% 30.28 in 1.8 mi Calm Calm - 0.00 in   Overcast
11:53 AM 32.0 °F - 30.9 °F 96% 30.30 in 1.5 mi Calm Calm - 0.00 in   Overcast
12:06 PM 32.0 °F - 32.0 °F 100% 30.28 in 0.5 mi Calm Calm - 0.00 in Fog Fog
12:53 PM 33.1 °F - 33.1 °F 100% 30.30 in 0.8 mi Calm Calm - 0.00 in   Overcast
1:00 PM 33.8 °F - 33.8 °F 100% 30.29 in 2.0 mi Calm Calm - N/A   Overcast
1:07 PM 33.8 °F - 33.8 °F 100% 30.29 in 4.0 mi Calm Calm - N/A   Overcast
1:53 PM 34.0 °F - 33.1 °F 96% 30.30 in 10.0 mi Calm Calm - N/A   Overcast
2:53 PM 35.1 °F - 35.1 °F 100% 30.30 in 8.0 mi Calm Calm - 0.00 in   Overcast
3:05 PM 35.6 °F - 35.6 °F 100% 30.28 in 2.5 mi Calm Calm - N/A   Overcast
3:23 PM 35.6 °F - 35.6 °F 100% 30.28 in 9.0 mi Calm Calm - N/A   Overcast
3:53 PM 37.0 °F - 36.0 °F 96% 30.29 in 10.0 mi Calm Calm - N/A   Mostly Cloudy
4:15 PM 37.4 °F - 35.6 °F 93% 30.27 in 10.0 mi Calm Calm - N/A   Mostly Cloudy
4:53 PM 37.9 °F - 37.0 °F 97% 30.28 in 10.0 mi Calm Calm - N/A   Scattered Clouds
5:53 PM 39.0 °F - 37.0 °F 93% 30.28 in 10.0 mi Calm Calm - N/A   Overcast
6:53 PM 37.9 °F - 37.0 °F 97% 30.27 in 10.0 mi Calm Calm - N/A   Mostly Cloudy
7:53 PM 37.0 °F - 36.0 °F 96% 30.27 in 10.0 mi Calm Calm - N/A   Mostly Cloudy
8:53 PM 36.0 °F - 36.0 °F 100% 30.27 in 10.0 mi Calm Calm - N/A   Overcast
9:53 PM 35.1 °F - 34.0 °F 96% 30.28 in 10.0 mi Calm Calm - N/A   Overcast
10:53 PM 35.1 °F - 34.0 °F 96% 30.28 in 10.0 mi Calm Calm - N/A   Overcast
11:53 PM 35.1 °F - 35.1 °F 100% 30.27 in 10.0 mi Calm Calm - N/A   Overcast